Find Starlink 30287

NORAD ID: 57709 Int'l Des: 2023-129 Owner: SPXS Country: US Constellation: starlink operational
LEOCIRCULAR

Live Position

Loading 3D Globe...

About Starlink 30287

Description loading...

Upcoming Passes

Passes for default location (London). Set your location on the main map for personalized predictions.

Altitude History

Loading altitude history...

Two-Line Element Set

1 57709U 23129M 26127.39905387 .00000577 00000-0 30507-4 0 9995
2 57709 43.0017 146.1556 0000954 224.5423 135.5352 15.27565264149666
Epoch: May 7, 2026 • Age: 19 hours

Current Status

Altitude 482.7 km
Velocity 7.63 km/s
Sub-Earth Point 12.01°N, 138.49°W
Launch Date Aug 27, 2023
Age 2.6 years
Type internet

Technical Details

Classification Payload
Mass 730.00 kg
Dry Mass 700.00 kg
Total Mass 730.00 kg
Length 0.30 m
Diameter 4.10 m
Span 29.00 m
Shape Box + pan
Manufacturer SPXS
Bus Type Starlink V2M
Phase Status In Orbit
Owner/State SPXS/US

Most Searched